Погода в Новой Жизни

Россия / Ставропольский край     44°53′32″N   44°05′06″E
темп.,
°C
ветер,
м/с
пор.,
м/с
влажн.,
%
обл.,
%
осадки,
мм/ч
давл.,
гПа
погр.,
м
17 апреля, сб
сб1700:00+12с3377100 0.1 101846
03:00+12в3470100 0.1 101869
06:00+13зюз1263100 0.0 101924
09:00+14сз7877100 0.0 1020671
12:00+14ссз8967100 0.0 10211076
15:00+14ссз5565100 0.1 10221101
18:00+11сз4583100 0.5 1022364
21:00+10сз2388100 0.5 1022117
18 апреля, вс
вс1800:00+10с2489100 0.6 1022199
03:00+9св2392100 0.6 1021108
06:00+10всв3491100 0.0 1020206
09:00+11вюв238697 0.6 1020305
12:00+13вюв3478100 0.6 1019676
15:00+16вюв456799 0.6 1017908
18:00+15вюв357486 0.1 1018211
21:00+11в479195 0.1 1018137
19 апреля, пн
пн1900:00+11вюв3592100 0.0 101794
03:00+11ююв2386100 0.0 101782
06:00+11ю2392100 0.5 101796
09:00+13ююз3484100 1.8 1017210
12:00+15ю2283100 0.9 1016330
15:00+16св1181100 1.1 1015173
18:00+14ссз1193100 2.8 101674
21:00+13вюв369598 5.4 1016177
20 апреля, вт
вт2000:00+12вюв31094100 0.0 1015254
03:00+10вюв51284100 0.0 1013267
06:00+11вюв71681100 0.0 1010413
09:00+15вюв91667100 0.0 1009601
12:00+20юв101452100 0.0 1007876
15:00+22ююв61052100 0.0 10071041
18:00+16в71267100 0.1 1007393
21:00+13с1181100 0.3 101028
21 апреля, ср
ср2100:00+14ссз61384100 0.6 1012727
03:00+13ссз61280100 2.1 1015540
06:00+12ссз4975100 0.1 1017466
09:00+11ссз4975100 0.1 1019832
12:00+11ссз3678100 0.1 1021564
15:00+11ссз4679100 0.1 1021421
18:00+10сз4783100 0.0 1022240
21:00+10с3787100 0.0 1023241